RH
47 67 85 68 78 72 53 84 54 40 54 48 38 36 46 43 40 37 24 16 15 14 13 10 10 8 7 6 7 6 7 8 14 21 24 24 25 26 27 30 28 27 26 26
40 48 67 66 74 61 71 54 80 49 39 46 54 40 37 43 43 32 27 20 15 17 17 12 10 8 9 8 8 8 9 9 11 16 23 26 29 29 30 30 27 24 23 24
36 40 49 58 61 69 67 70 60 71 59 37 41 55 43 36 42 44 33 29 29 26 24 22 21 18 15 16 18 20 21 24 27 28 32 34 35 33 30 27 26 27 29 30
38 41 46 48 52 54 75 87 78 63 63 62 38 38 51 54 37 43 46 42 38 35 35 32 29 27 24 19 17 17 18 20 24 26 27 29 30 32 32 30 30 29 30 29
38 44 49 41 40 46 48 82 93 76 75 91 60 45 33 33 62 49 42 47 47 43 40 39 39 37 35 35 32 31 31 31 34 36 37 37 36 36 36 35 35 37 44 48
41 54 54 44 36 37 45 47 66 86 80 83 97 76 57 42 30 48 60 52 40 46 50 51 51 49 47 46 44 42 41 40 41 43 44 45 45 46 47 48 46 45 43 39
52 56 56 46 46 39 37 43 44 60 80 89 91 100 100 86 60 34 32 50 67 61 52 44 37 36 37 39 42 44 47 48 50 50 48 45 44 42 39 37 38 38 38 35
61 62 54 48 43 42 41 34 33 33 40 65 81 80 94 100 99 77 51 38 29 33 54 66 58 47 48 48 52 44 45 43 42 42 40 39 43 40 37 38 42 49 54 52
70 70 62 50 43 43 44 34 32 29 32 31 41 66 74 72 99 95 84 68 53 40 34 26 27 32 37 56 84 81 75 70 60 52 50 52 56 39 38 38 49 54 51 55
78 79 84 62 57 51 50 45 40 31 28 33 35 41 64 51 61 71 65 57 69 67 50 39 40 35 35 33 29 28 28 29 45 57 57 55 40 52 70 57 68 100 100 100
97 92 91 90 84 72 61 57 45 41 32 31 38 45 48 57 52 40 55 53 38 44 54 45 32 31 31 33 32 31 32 32 32 31 31 35 57 46 34 36 44 42 45 48
100 100 98 97 96 94 90 94 58 77 70 34 30 34 53 50 56 66 55 56 52 38 44 51 58 46 45 40 34 31 33 36 42 47 46 43 45 50 46 50 49 41 42 50
100 100 100 100 100 100 88 93 83 64 100 61 50 39 32 42 70 94 58 63 87 89 88 99 96 80 82 93 90 85 98 99 98 100 97 100 98 96 94 99 100 100 100 100
100 100 100 100 100 100 100 100 100 100 100 72 56 85 91 58 48 60 82 74 80 89 73 63 62 56 76 98 100 95 63 54 46 51 45 44 43 40 40 43 46 35 36 44
100 100 100 100 100 100 100 100 100 100 100 97 75 56 67 68 66 82 94 87 63 52 51 48 54 51 63 84 91 63 61 58 58 59 55 62 60 61 60 69 89 94 96 96
100 100 100 100 100 100 100 100 100 100 100 100 100 89 85 66 64 68 64 95 100 100 97 99 100 84 91 99 100 80 67 86 89 90 91 99 100 100 100 100 100 100 100 100
100 100 100 100 100 100 100 100 100 100 100 100 100 100 100 100 95 95 95 82 66 64 73 82 96 89 87 100 100 100 96 97 100 100 100 100 100 100 100 90 89 76 74 73
100 100 100 100 100 100 100 100 100 100 100 100 99 100 100 100 100 100 100 100 78 81 69 82 93 100 100 100 100 100 100 100 100 100 100 100 100 95 83 62 54 51 50 54
100 100 100 100 100 100 100 100 100 100 100 100 100 100 100 100 100 100 100 100 98 100 100 100 100 100 100 100 100 96 100 100 100 100 100 100 97 90 74 56 52 61 82 82
91 95 100 100 100 100 100 100 94 100 100 100 100 100 100 100 100 100 100 100 100 100 100 100 100 100 100 100 100 100 100 100 100 98 96 93 89 85 78 69 56 60 62 70
91 76 87 100 100 100 100 100 95 80 77 89 100 100 100 100 100 100 100 99 100 100 100 99 100 100 100 99 86 85 87 79 73 74 75 65 60 57 57 61 57 50 51 57
94 92 79 100 92 100 100 100 100 100 100 100 100 100 100 98 100 100 95 93 81 70 93 98 100 100 100 94 91 80 68 61 60 56 56 62 55 55 60 62 59 53 62 72
95 82 77 98 80 64 69 93 100 100 100 100 100 100 96 87 81 82 86 82 80 78 70 63 71 76 75 78 78 77 72 72 76 78 71 69 68 68 62 63 58 59 70 82
73 92 85 87 67 56 72 90 100 100 99 98 100 100 100 100 100 100 100 90 82 75 79 88 82 79 77 69 74 88 94 97 91 96 93 79 70 63 60 52 52 58 84 65
96 64 69 79 82 85 79 89 98 93 83 96 100 100 100 100 100 100 100 99 96 100 100 100 100 98 96 91 83 83 93 84 98 98 84 74 57 52 50 53 58 72 58 28
32 41 49 55 65 73 70 67 70 82 80 68 82 100 100 100 100 100 100 100 100 100 100 100 100 100 100 91 87 86 75 60 64 66 64 67 59 59 55 56 56 42 24 23
25 29 36 45 76 81 68 71 88 98 97 98 81 86 82 82 84 94 99 100 96 90 82 84 82 84 87 75 70 63 63 62 55 51 53 58 66 63 49 40 26 23 23 22
Wind_Speed
16 19 25 28 33 36 43 50 57 63 68 74 80 73 67 65 62 53 45 40 35 26 22 15 16 23 28 33 31 32 35 44 55 64 69 75 78 77 74 72 72 73 76 79
13 15 19 23 27 32 36 41 47 54 59 64 71 77 69 66 65 60 51 47 46 43 36 29 27 26 25 27 30 31 29 30 37 46 53 57 65 71 71 72 73 74 72 73
9 11 15 19 22 25 31 34 39 45 50 56 60 66 74 66 61 62 60 58 55 53 50 46 44 41 38 37 38 38 37 34 32 33 40 45 50 56 64 70 70 66 62 62
5 7 11 13 17 20 24 30 32 36 42 46 52 57 64 67 68 56 56 55 55 54 52 49 46 43 38 33 30 29 29 29 29 28 29 32 34 35 36 37 38 38 37 37
6 5 6 10 13 15 20 23 27 28 33 38 43 48 51 55 60 67 52 48 48 47 45 44 43 40 38 35 33 30 27 24 22 20 19 19 20 19 19 18 18 20 21 25
10 6 7 7 10 11 15 17 21 24 28 29 33 38 43 45 49 52 55 59 49 40 38 38 37 36 35 33 31 29 26 23 21 19 17 14 12 12 13 15 17 20 22 21
14 12 8 6 6 8 10 13 16 19 21 23 24 28 32 36 39 40 43 44 47 48 50 48 40 32 28 25 22 21 19 16 13 11 9 9 10 11 11 10 10 12 13 13
18 13 10 7 5 4 5 8 10 14 14 17 18 18 21 25 27 32 34 34 35 36 37 39 41 41 40 39 38 36 34 30 27 24 21 20 18 15 15 13 13 8 5 4
24 18 15 12 9 5 5 5 7 9 10 10 12 15 17 16 18 22 25 27 27 26 27 27 27 27 26 27 26 24 23 23 20 18 15 12 9 6 3 2 4 6 8 11
31 26 22 18 14 11 8 7 8 7 5 4 7 7 10 12 11 13 17 18 19 21 20 19 19 19 18 17 15 14 12 11 9 8 8 9 9 9 8 12 13 17 19 22
39 33 28 25 21 16 15 12 11 9 8 4 2 5 6 11 8 6 7 9 9 11 11 11 11 11 11 11 10 9 8 9 9 11 12 12 12 14 17 19 20 22 24 28
45 39 37 31 30 23 21 21 16 13 13 8 6 5 5 9 10 8 5 5 5 2 4 6 3 4 5 5 3 3 7 9 10 14 17 18 20 22 25 27 30 31 33 37
45 44 47 41 37 33 28 26 24 17 17 16 13 13 11 9 11 10 9 13 9 4 7 11 10 13 11 12 11 10 14 20 20 17 19 21 24 26 28 31 34 34 38 39
47 45 44 49 48 43 38 34 33 30 25 25 21 19 21 17 15 16 16 17 13 14 15 16 16 16 16 15 17 20 22 26 29 31 34 35 37 38 41 43 45 50 51 53
55 50 47 45 47 50 47 45 43 38 35 33 32 28 27 26 25 25 26 25 25 24 24 23 23 22 24 26 27 29 29 32 35 38 39 41 44 46 49 51 52 55 59 61
64 59 54 51 48 46 44 44 48 46 44 42 39 42 37 35 34 33 32 32 33 33 33 32 33 32 31 34 38 39 39 40 41 41 41 44 46 49 51 52 54 61 63 66
71 69 65 62 57 54 51 50 49 49 50 49 51 50 50 43 42 42 42 40 37 37 38 39 40 40 39 42 46 48 50 49 47 49 49 49 52 56 60 64 67 68 72 72
79 76 74 71 68 64 60 59 57 52 51 49 48 50 54 53 50 49 48 47 47 44 43 44 46 45 43 49 54 54 54 57 59 59 59 63 69 71 72 74 78 80 80 80
88 84 82 78 74 74 73 68 65 62 59 51 48 50 56 56 56 56 55 53 48 43 44 47 48 52 57 59 63 64 64 66 66 68 72 74 77 80 83 86 85 87 87 91
99 93 87 83 80 81 80 79 77 71 66 62 61 63 64 63 64 63 61 60 58 55 56 59 57 60 67 65 67 67 69 71 74 78 81 83 85 87 90 92 92 94 94 96
105 101 93 90 91 91 88 84 81 80 77 72 70 73 74 74 72 72 72 70 68 65 65 68 65 68 74 75 77 78 80 82 84 86 88 91 92 95 97 100 100 103 102 108
107 107 104 103 103 101 98 90 84 79 79 76 80 82 82 81 82 82 81 81 81 78 74 75 75 80 83 85 86 88 89 90 92 94 94 97 100 103 105 106 109 109 109 107
110 115 113 110 112 111 102 92 87 88 88 88 88 89 88 87 88 89 89 89 88 87 86 84 84 86 88 90 91 93 94 96 97 99 102 105 109 110 111 113 115 113 112 116
116 118 125 118 117 110 100 97 96 95 99 100 96 95 93 92 94 95 94 96 95 92 90 91 95 95 96 96 97 98 100 102 104 106 108 110 113 116 117 120 117 116 117 115
123 122 126 123 115 107 105 104 101 103 106 104 104 101 99 100 102 101 102 103 101 99 99 100 98 99 100 102 104 105 107 109 111 113 113 116 118 118 119 120 118 119 116 114
115 120 123 119 118 118 112 110 112 115 112 114 112 109 107 107 108 107 107 108 106 106 107 107 108 109 111 111 110 112 115 116 117 120 122 122 125 125 120 117 119 118 116 114
113 112 109 113 117 114 110 109 108 108 108 109 116 114 114 115 114 113 113 112 115 114 114 116 117 115 116 117 119 122 124 123 124 125 125 122 124 118 116 117 117 115 114 115
Wind_Direction
353 3 0 10 13 19 24 26 29 34 39 41 43 44 45 45 46 52 57 61 65 74 76 89 122 145 149 155 165 173 180 191 201 206 210 215 219 223 227 230 234 239 242 246
351 4 14 13 17 17 24 26 29 32 38 43 44 44 46 49 48 50 56 62 67 71 77 89 103 114 123 138 150 156 161 173 191 203 211 215 220 225 228 231 237 240 245 251
341 358 14 17 16 17 20 27 30 31 33 40 45 48 48 51 55 55 57 66 72 76 80 85 91 95 103 114 120 124 130 137 152 174 194 206 214 222 228 234 240 246 250 253
307 352 6 9 16 17 18 22 27 30 33 36 43 47 48 50 53 59 61 62 68 72 74 78 81 85 87 91 100 117 131 145 155 166 180 195 208 219 226 230 234 238 243 247
251 314 341 357 8 19 17 21 24 30 31 34 37 44 47 52 57 57 64 66 64 66 71 76 80 81 83 86 91 97 105 114 124 138 156 171 180 186 193 205 217 229 242 251
230 267 298 326 355 16 18 22 26 29 27 29 37 37 43 48 53 57 62 63 69 74 76 78 80 83 85 88 92 99 104 111 120 129 140 151 169 189 208 227 241 251 260 258
225 249 270 291 336 353 22 27 28 26 26 28 30 38 40 40 47 53 56 61 67 69 74 76 77 80 86 91 97 101 106 111 123 139 162 191 213 229 228 220 197 181 186 198
226 237 234 248 282 338 352 25 33 28 26 32 32 31 35 41 42 42 51 57 63 64 69 73 72 83 84 85 85 90 93 95 99 103 108 114 118 127 140 144 153 167 157 187
223 231 234 235 249 252 287 17 21 22 25 29 35 41 33 33 35 34 37 41 49 57 63 72 74 77 75 73 71 71 70 73 73 71 79 79 64 77 87 98 12 321 303 302
225 232 230 235 241 247 247 295 342 349 3 70 39 28 32 31 34 34 29 31 31 35 42 50 55 56 55 63 68 69 72 68 61 43 24 2 346 334 318 308 306 311 309 304
224 230 230 235 239 237 253 267 296 317 335 327 325 26 43 28 23 34 30 26 38 35 22 38 46 49 53 36 24 15 25 20 7 354 336 325 309 306 299 293 286 285 286 289
229 230 234 232 242 238 248 253 270 271 294 295 304 312 320 348 356 2 354 347 11 348 8 359 341 319 314 314 301 287 290 279 276 282 281 286 289 292 289 287 285 283 283 285
237 239 231 240 244 244 243 252 253 269 266 279 286 299 298 297 322 325 349 342 323 299 327 329 348 343 329 320 320 304 316 318 312 304 305 304 304 297 295 297 292 291 293 291
241 242 243 239 242 246 248 250 251 256 260 273 278 280 287 288 292 295 303 310 312 312 314 316 312 319 322 316 307 294 308 312 312 309 309 310 308 307 305 301 300 304 306 302
237 238 240 246 247 248 250 249 250 252 255 261 268 278 275 279 281 289 291 290 292 297 299 302 303 306 313 309 305 301 303 305 308 307 310 308 309 311 311 309 307 307 307 306
238 236 238 241 244 248 253 255 255 254 262 258 261 270 274 279 279 280 282 282 290 287 291 293 291 294 299 295 289 294 303 304 304 304 305 305 305 304 304 302 302 304 305 304
240 240 239 237 240 241 244 250 252 256 256 262 265 267 269 271 271 270 275 279 276 277 280 282 283 290 295 287 279 293 296 296 296 300 299 295 295 297 298 299 301 301 302 303
238 241 242 243 241 241 241 243 247 249 253 256 262 265 265 268 266 266 268 274 278 276 276 279 280 282 280 282 287 288 289 291 291 292 292 293 296 297 299 299 299 300 301 303
238 241 243 244 244 244 245 244 242 245 249 248 253 258 261 263 264 263 263 268 270 272 273 275 278 277 275 281 286 288 290 292 292 293 295 297 297 298 300 304 304 304 307 307
238 238 243 245 247 247 248 248 247 247 248 249 250 251 253 256 260 261 262 264 265 266 271 274 277 279 279 281 283 286 287 288 289 290 292 293 295 296 299 301 302 302 304 304
238 240 240 242 245 247 247 248 250 251 252 252 255 259 259 256 256 258 261 263 264 265 267 270 272 276 280 281 282 284 287 289 290 291 292 294 296 297 298 298 299 301 301 303
239 240 239 241 242 244 247 247 250 254 255 257 257 257 258 260 262 263 264 266 267 268 267 268 272 275 278 281 283 285 288 290 290 290 291 292 294 296 297 298 299 300 302 301
239 239 239 240 243 243 246 249 251 253 253 254 256 258 260 262 263 264 266 267 269 269 271 272 274 275 277 280 283 285 287 288 289 290 292 293 294 296 297 296 298 299 299 302
239 241 238 239 241 242 246 249 251 255 256 257 259 261 262 263 264 266 269 270 271 272 273 274 274 276 277 279 281 283 283 284 285 286 289 292 293 294 295 295 296 297 301 301
241 241 240 239 241 242 243 245 249 254 252 255 256 258 260 262 264 265 267 270 271 273 274 274 274 276 276 277 279 281 282 283 285 287 288 291 292 292 293 294 296 298 298 298
240 242 240 241 242 241 242 245 248 248 253 255 256 257 259 261 263 264 267 270 270 272 274 274 274 275 275 276 278 280 283 286 285 286 288 289 291 293 294 294 295 297 296 295
241 241 242 241 241 243 243 246 247 247 250 255 255 255 257 259 261 264 265 267 269 272 273 273 274 276 277 279 281 283 283 285 285 287 289 289 291 292 293 294 294 294 295 295